Overview Statistics Trail Chart Weather Telemetry Raw packets
 

This is the latest recevied weather packets stored in our database for station/object AI5BL. If no packets are shown the sender has not sent any weather packets the latest 10 day(s).

<< 37 38 39 40 41 42 43 >>
Time Temp. Humidity Pressure Rain* Wind** Luminosity Snow
1788397725 27.22° C 81% 1017.6 hPa 0 mm - 0 W/m² -
1788397421 27.22° C 80% 1017.4 hPa 0 mm - 0 W/m² -
1788397119 27.78° C 79% 1017.6 hPa 0 mm - 0 W/m² -
1788396814 27.22° C 79% 1017.5 hPa 0 mm - 0 W/m² -
1788396510 27.78° C 80% 1017.5 hPa 0 mm - 0 W/m² -
1788396206 27.78° C 79% 1017.4 hPa 0 mm - 0 W/m² -
1788395901 27.78° C 77% 1017.3 hPa 0 mm - 0 W/m² -
1788395595 27.78° C 79% 1017.1 hPa 0 mm - 0 W/m² -
1788395289 28.33° C 79% 1017 hPa 0 mm - 0 W/m² -
1788394989 28.89° C 78% 1017.1 hPa 0 mm - 1 W/m² -
1788394684 28.89° C 77% 1017 hPa 0 mm - 2 W/m² -
1788394379 28.89° C 74% 1017.1 hPa 0 mm - 3 W/m² -
1788394074 28.89° C 75% 1017.1 hPa 0 mm - 4 W/m² -
1788393775 29.44° C 73% 1017 hPa 0 mm - 4 W/m² -
1788393472 29.44° C 73% 1017.2 hPa 0 mm - 5 W/m² -
1788393168 29.44° C 72% 1017 hPa 0 mm - 6 W/m² -
1788392868 29.44° C 70% 1017.1 hPa 0 mm - 7 W/m² -
1788392562 30° C 71% 1017.2 hPa 0 mm - 9 W/m² -
1788392262 30° C 70% 1017 hPa 0 mm - 10 W/m² -
1788391962 30° C 71% 1016.9 hPa 0 mm - 11 W/m² -
1788391660 30° C 70% 1016.9 hPa 0 mm - 12 W/m² -
1788391354 30.56° C 69% 1016.9 hPa 0 mm - 12 W/m² -
1788391054 30.56° C 70% 1016.8 hPa 0 mm - 11 W/m² -
1788390749 30.56° C 68% 1016.8 hPa 0 mm - 12 W/m² -
1788390444 31.11° C 69% 1016.9 hPa 0 mm - 13 W/m² -

* Rain latest hour (hover to see other rain measurements)
** Current wind speed in m/s (hover to see current wind gust speed)